Volver al catálogo

STARLINK-3976

ActivoComunicacionesVLEO
NORAD 52673·PAYLOAD·🇺🇸 United States

Lanzado May 18, 2022 desde Cape Canaveral Space Force Station

Loading…

Próximos Pases (próximas 24 horas)

TLE

ActualizadoSource: CelesTrak SupGP

Época: Sep 14, 2026, 21:36 UTC

1 52673C 22053T   26257.90048611 -.00009331  00000+0 -26699-3 0  2575
2 52673  53.1585  14.3673 0001210  81.9196 323.7802 15.35401102    12

Sigue STARLINK-3976 en tiempo real con AllMySat

Download on the App Store